Simultaneous Nadir Overpasses (SNOs) Predictions

Prediction of SNOs between AQUA and LANDSAT-8 Satellite Orbit:

Table of predicted SNOs for the next 14.0 days since TLE Epoch: 3/29/2025
Index Date (AQUA) Time (AQUA) Lat,Lon (AQUA) SZA (AQUA ) Date (LANDSAT-8) Time (LANDSAT-8) Lat,Lon (LANDSAT-8) SZA (LANDSAT-8 ) Distance(km) Time Diff (sec)
1 04/07/2025 07:16:17 -74.60,-102.19 112.35 04/07/2025 07:15:10 -74.62,-104.45 112.39 66.66 67
2 04/07/2025 08:05:41 74.85, 64.84 67.87 04/07/2025 08:04:31 74.84, 63.75 67.83 31.82 70
3 04/07/2025 08:55:03 -75.06,-128.04 111.95 04/07/2025 08:53:54 -75.08,-128.00 111.93 2.49 69
4 04/07/2025 09:44:22 75.05, 39.64 68.04 04/07/2025 09:43:20 75.04, 39.56 68.02 2.55 62
5 04/07/2025 10:33:40 -75.06,-152.71 111.97 04/07/2025 10:32:47 -75.08,-152.72 111.96 1.67 53
6 04/07/2025 11:22:59 75.06, 14.97 68.02 04/07/2025 11:22:12 75.10, 14.97 68.05 4.02 47
7 04/07/2025 12:12:17 -75.07,-177.38 111.99 04/07/2025 12:11:40 -75.08,-177.44 111.98 1.94 37
8 04/07/2025 13:01:37 75.12, -9.84 68.05 04/07/2025 13:01:05 75.10, -9.74 68.03 3.37 32
9 04/07/2025 13:50:54 -75.08, 157.95 112.01 04/07/2025 13:50:33 -75.08, 157.85 112.01 3.02 21
10 04/07/2025 14:40:14 75.12, -34.51 68.03 04/07/2025 14:39:58 75.10, -34.46 68.00 2.93 16
11 04/07/2025 15:29:32 -75.13, 133.15 111.98 04/07/2025 15:29:25 -75.13, 133.26 111.98 3.38 7
12 04/07/2025 16:18:51 75.13, -59.18 68.01 04/07/2025 16:18:51 75.10, -59.18 67.98 3.20 0
13 04/07/2025 17:08:09 -75.14, 108.48 112.00 04/07/2025 17:08:18 -75.13, 108.55 112.00 2.05 9
14 04/07/2025 17:57:28 75.14, -83.84 67.99 04/07/2025 17:57:43 75.15, -83.76 68.01 2.99 15
15 04/07/2025 18:46:46 -75.15, 83.81 112.02 04/07/2025 18:47:11 -75.14, 83.83 112.03 1.18 25
16 04/07/2025 19:36:05 75.14,-108.51 67.97 04/07/2025 19:36:36 75.15,-108.48 67.98 1.60 31
17 04/07/2025 20:25:23 -75.15, 59.14 112.04 04/07/2025 20:26:04 -75.14, 59.11 112.05 1.73 41
18 04/07/2025 21:14:42 75.15,-133.18 67.95 04/07/2025 21:15:29 75.16,-133.20 67.96 0.76 47
19 04/07/2025 22:04:00 -75.16, 34.47 112.06 04/07/2025 22:04:57 -75.14, 34.39 112.07 2.99 57
20 04/07/2025 22:53:19 75.16,-157.85 67.93 04/07/2025 22:54:22 75.16,-157.91 67.94 1.71 63
21 04/07/2025 23:42:37 -75.17, 9.80 112.08 04/07/2025 23:43:49 -75.19, 9.81 112.05 2.85 72
22 04/08/2025 00:32:01 75.41, 176.77 68.15 04/08/2025 00:33:10 75.41, 178.05 68.18 35.84 69
23 04/08/2025 01:21:27 -75.81, -16.74 111.49 04/08/2025 01:22:31 -75.74, -13.37 111.48 92.47 64



Historial Predications of SNOs between AQUA and LANDSAT-8
